Simultaneous Nadir Overpasses (SNOs) Predictions

Prediction of SNOs between GOES-16 and METOP-C Satellite Orbit:

Table of predicted SNOs for the next 14.0 days since TLE Epoch: 4/11/2025
Index Date Time (GOES-16) GOES-16 Lat,Lon METOP-C Lat,Lon Distance(km) Time Diff (sec)
1 04/12/2025 14:35:27 0.07, -75.53 0.31, -76.48 109.24 80
2 04/13/2025 14:17:26 0.07, -75.54 -0.81, -71.48 461.27 80
3 04/15/2025 02:36:25 -0.07, -75.53 -0.21, -76.07 62.54 80
4 04/17/2025 14:31:55 0.06, -75.58 0.09, -75.64 7.81 80
5 04/20/2025 02:30:12 -0.06, -75.59 0.04, -75.24 40.06 80
6 04/21/2025 14:49:03 0.05, -75.63 0.96, -79.80 475.26 80
7 04/22/2025 14:31:01 0.05, -75.64 -0.12, -74.80 96.14 80
8 04/24/2025 02:49:59 -0.05, -75.66 -0.86, -79.39 425.42 80
9 04/25/2025 02:26:38 -0.05, -75.67 0.23, -74.39 146.24 80
